Regional Weather Roundup
Issued by NWS

Home | Current Version | Previous Version | Graphics & Text | Print | Product List | Glossary On
Versions: 1 2 3 4 5 6 7 8 9 10 11 12 13 14 15 16 17 18 19 20 21 22 23 24 25 26 27 28 29 30 31 32 33 34 35 36 37 38 39 40 41 42 43 44 45 46 47 48 49 50
498
ASUS43 KTOP 261608
RWRKS

WEATHER ROUNDUP FOR KANSAS
NATIONAL WEATHER SERVICE GOODLAND KS
1100 AM CDT SAT MAY 26 2018

NOTE:  "FAIR" INDICATES FEW OR NO CLOUDS BELOW 12,000 FEET WITH NO
SIGNIFICANT WEATHER AND/OR OBSTRUCTIONS TO VISIBILITY.

KSZ001>006-013>018-027>032-041>047-261700-
NORTHWEST KANSAS

CITY           SKY/WX    TMP DP  RH WIND       PRES   REMARKS
GOODLAND       SUNNY     85  53  33 S24G33    29.90F
HAYS           SUNNY     87  68  52 SW12      29.86F
HILL CITY      SUNNY     86  65  49 SW13      29.86F
RUSSELL        SUNNY     86  71  60 SW9       29.85F
$$

KSZ061>065-074>080-084>089-261700-
SOUTHWEST KANSAS

CITY           SKY/WX    TMP DP  RH WIND       PRES   REMARKS
DODGE CITY     SUNNY     89  59  36 S14       29.89S
ELKHART        MOSUNNY   84  60  42 CALM      29.92F
GARDEN CITY    SUNNY     84  59  42 SW13      29.90S
GREAT BEND     SUNNY     86  69  56 S7        29.87F
LIBERAL        SUNNY     83  61  47 SE8       29.91F
PRATT          SUNNY     85  68  55 SW7       29.87F
$$

KSZ066>073-081>083-090>101-261700-
SOUTHEAST KANSAS

CITY           SKY/WX    TMP DP  RH WIND       PRES   REMARKS
CHANUTE        SUNNY     81  70  69 S8        29.89S
COFFEYVILLE    SUNNY     84  67  56 SW6       29.88S
HUTCHINSON     SUNNY     84  71  65 S5        29.87F
MEDICINE LODGE   N/A     83  70  64 SE6       29.85F
NEWTON         SUNNY     83  70  64 SW7       29.88F
PARSONS        SUNNY     83  69  62 W8        29.90S
WICHITA INTL   SUNNY     84  65  52 SW5       29.87F
WICHITA JABRA  SUNNY     82  66  58 S8        29.87F
WICHITA MCCONL SUNNY     83  64  53 SW7       29.88F
WINFIELD       SUNNY     83  67  58 SE6       29.89F
$$

KSZ007>012-019>026-033>040-048>060-102>105-261700-
NORTHEAST KANSAS

CITY           SKY/WX    TMP DP  RH WIND       PRES   REMARKS
CONCORDIA      SUNNY     85  68  56 W5        29.84F
EMPORIA        SUNNY     85  73  67 W7        29.86F
LAWRENCE       SUNNY     86  72  62 W8        29.83S
MANHATTAN      SUNNY     87  69  54 CALM      29.83F
OLATHE IND     SUNNY     85  71  63 SW8       29.85S
OLATHE EXE     SUNNY     83  72  69 SW8       29.85S
SALINA         SUNNY     87  73  62 CALM      29.85F
TOPEKA BILLARD SUNNY     86  72  62 W8        29.83S
TOPEKA FORBES  SUNNY     88  73  61 W9        29.85S HX  95
$$




USA.gov is the U.S. government's official web portal to all federal, state and local government web resources and services.